Retour au catalogue

ALSAT 2B

ActifScienceSSO
NORAD 41786·PAYLOAD·🇩🇿 Algeria

Lancé Sep 26, 2016 depuis Satish Dhawan Space Centre

Loading…

Prochains Passages (prochaines 24 heures)

TLE

FraisSource: Space-Track

Époque: Sep 14, 2026, 14:18 UTC

1 41786U 16059D   26257.59641563  .00000273  00000-0  52453-4 0  9993
2 41786  97.9812 318.1134 0000820  64.2705 295.8587 14.70963642533916

Suivez ALSAT 2B en temps réel avec AllMySat

Download on the App Store